FW4012 Weather Reports


Display with metric or nautical units.
time (UTC)temp
F
wind
direction
speed
MPH
gust
MPH
rain 1hr
in
rain 24hr
in
rain mn
in
humidity
%
barometer
mb
20260502130746 73 107 7.0 10.0 0.00 0.00 0.00 40 1021.6
20260502130248 72 198 4.0 10.0 0.00 0.00 0.00 42 1021.8
20260502123732 71 189 1.0 9.0 0.00 0.00 0.00 45 1022.0
20260502123232 72 133 3.0 9.0 0.00 0.00 0.00 43 1022.2
20260502122731 70 199 3.0 9.0 0.00 0.00 0.00 45 1022.3
20260502122301 71 124 4.0 8.0 0.00 0.00 0.00 46 1022.4
20260502121735 71 23 3.0 8.0 0.00 0.00 0.00 42 1022.4
20260502121236 71 301 5.0 8.0 0.00 0.00 0.00 44 1022.5
20260502120730 71 205 5.0 9.0 0.00 0.00 0.00 42 1022.6
20260502120228 71 238 2.0 10.0 0.00 0.00 0.00 43 1022.5
20260502115727 70 171 3.0 10.0 0.00 0.00 0.00 45 1022.7
20260502115226 70 215 4.0 8.0 0.00 0.00 0.00 42 1022.7
20260502114744 71 347 4.0 9.0 0.00 0.00 0.00 44 1022.7
20260502114225 72 163 2.0 9.0 0.00 0.00 0.00 44 1022.7
20260502113732 71 126 4.0 11.0 0.00 0.00 0.00 49 1022.8
20260502113250 70 107 2.0 11.0 0.00 0.00 0.00 45 1022.9
20260502112747 70 325 2.0 8.0 0.00 0.00 0.00 44 1023.0
20260502112239 70 161 3.0 9.0 0.00 0.00 0.00 46 1023.2
20260502111740 68 194 3.0 7.0 0.00 0.00 0.00 45 1023.3
20260502111240 69 242 4.0 12.0 0.00 0.00 0.00 45 1023.4
20260502110759 69 246 9.0 12.0 0.00 0.00 0.00 45 1023.4
20260502110240 68 264 3.0 8.0 0.00 0.00 0.00 45 1023.4
20260502105738 68 257 5.0 8.0 0.00 0.00 0.00 45 1023.4
20260502105240 69 256 3.0 7.0 0.00 0.00 0.00 43 1023.5
20260502104748 68 313 2.0 8.0 0.00 0.00 0.00 45 1023.5
20260502104246 68 253 4.0 11.0 0.00 0.00 0.00 45 1023.6
20260502103724 68 243 8.0 11.0 0.00 0.00 0.00 43 1023.7
20260502103240 69 225 6.0 10.0 0.00 0.00 0.00 46 1023.7
20260502102739 69 217 2.0 9.0 0.00 0.00 0.00 44 1023.8
20260502102259 68 250 2.0 6.0 0.00 0.00 0.00 47 1023.8
20260502101737 67 36 4.0 6.0 0.00 0.00 0.00 49 1023.9
20260502101238 68 148 4.0 6.0 0.00 0.00 0.00 45 1024.0
20260502100737 70 130 3.0 11.0 0.00 0.00 0.00 44 1024.1
20260502100238 69 121 5.0 11.0 0.00 0.00 0.00 50 1024.1
20260502091250 67 211 0.0 9.0 0.00 0.00 0.00 50 1024.7
20260502090749 66 148 5.0 9.0 0.00 0.00 0.00 51 1024.7
20260502090224 65 71 4.0 7.0 0.00 0.00 0.00 50 1024.7
20260502071226 62 342 3.0 5.0 0.00 0.00 0.00 62 1025.1
20260502070723 61 321 3.0 5.0 0.00 0.00 0.00 62 1025.1
20260502070301 61 319 3.0 4.0 0.00 0.00 0.00 63 1025.2
20260502065740 61 312 3.0 5.0 0.00 0.00 0.00 63 1025.2
20260502065249 61 294 2.0 5.0 0.00 0.00 0.00 64 1025.3
20260502064751 61 328 2.0 5.0 0.00 0.00 0.00 64 1025.2
20260502064248 60 319 3.0 5.0 0.00 0.00 0.00 64 1025.2
20260502063724 60 331 3.0 5.0 0.00 0.00 0.00 66 1025.2
20260502063238 59 324 4.0 5.0 0.00 0.00 0.00 67 1025.2
20260502062744 59 323 3.0 6.0 0.00 0.00 0.00 67 1025.2
20260502062305 59 331 4.0 6.0 0.00 0.00 0.00 67 1025.2
20260502061740 59 320 4.0 5.0 0.00 0.00 0.00 68 1025.1
20260502061257 58 319 3.0 5.0 0.00 0.00 0.00 70 1025.1
20260502060736 57 323 3.0 5.0 0.00 0.00 0.00 72 1025.2
20260502060257 56 318 3.0 5.0 0.00 0.00 0.00 73 1025.2
20260502055735 56 313 4.0 5.0 0.00 0.00 0.00 74 1025.2
20260502055230 55 325 3.0 5.0 0.00 0.00 0.00 76 1025.2
20260502054727 54 311 3.0 5.0 0.00 0.00 0.00 80 1025.2
20260502054223 53 313 3.0 4.0 0.00 0.00 0.00 83 1025.2
20260502053750 52 317 2.0 4.0 0.00 0.00 0.00 85 1025.3
20260502053227 50 316 3.0 4.0 0.00 0.00 0.00 87 1025.2
20260502052726 49 306 1.0 3.0 0.00 0.00 0.00 88 1025.3
20260502052243 48 306 1.0 3.0 0.00 0.00 0.00 87 1025.2
20260502051736 47 304 1.0 2.0 0.00 0.00 0.00 87 1025.2
20260502051233 46 304 0.0 2.0 0.00 0.00 0.00 88 1025.1
20260502050733 46 305 0.0 3.0 0.00 0.00 0.00 87 1025.1
20260502050235 46 305 1.0 3.0 0.00 0.00 0.00 88 1025.1
20260502045730 45 305 2.0 3.0 0.00 0.00 0.00 88 1025.1
20260502045225 45 305 1.0 3.0 0.00 0.00 0.00 87 1025.2
20260502044725 45 305 2.0 3.0 0.00 0.00 0.00 88 1025.2
20260502044241 45 305 2.0 3.0 0.00 0.00 0.00 88 1025.1
20260502043739 45 305 2.0 3.0 0.00 0.00 0.00 88 1025.2
20260502043240 45 305 2.0 3.0 0.00 0.00 0.00 87 1025.1
20260502042740 45 305 2.0 3.0 0.00 0.00 0.00 87 1025.1
20260502042222 44 305 2.0 3.0 0.00 0.00 0.00 87 1025.2
20260502041742 44 305 2.0 3.0 0.00 0.00 0.00 87 1025.1
20260502041241 44 305 2.0 3.0 0.00 0.00 0.00 87 1025.0
20260502040740 44 304 2.0 3.0 0.00 0.00 0.00 87 1025.0
20260502040257 44 304 2.0 3.0 0.00 0.00 0.00 87 1025.0
20260502035733 44 304 1.0 3.0 0.00 0.00 0.00 87 1025.0
20260502035233 44 304 2.0 3.0 0.00 0.00 0.00 87 1025.0
20260502034733 44 303 0.0 0.0 0.00 0.00 0.00 87 1025.0
20260502034232 44 304 0.0 3.0 0.00 0.00 0.00 87 1025.1
20260502033732 44 304 2.0 3.0 0.00 0.00 0.00 87 1024.9
20260502033231 44 303 1.0 3.0 0.00 0.00 0.00 87 1024.9
20260502032731 44 303 2.0 3.0 0.00 0.00 0.00 87 1024.9
20260502032231 44 304 2.0 3.0 0.00 0.00 0.00 87 1025.0
20260502031741 45 304 2.0 3.0 0.00 0.00 0.00 87 1024.9
20260502031239 44 304 2.0 3.0 0.00 0.00 0.00 87 1024.9
20260502030755 44 303 2.0 2.0 0.00 0.00 0.00 87 1024.9
20260502030228 44 303 1.0 3.0 0.00 0.00 0.00 87 1024.9
20260502025730 44 303 2.0 3.0 0.00 0.00 0.00 87 1024.8
20260502025228 44 303 0.0 2.0 0.00 0.00 0.00 87 1024.9
20260502024727 44 303 0.0 3.0 0.00 0.00 0.00 87 1024.9
20260502024232 44 303 2.0 3.0 0.00 0.00 0.00 87 1024.9
20260502023750 44 303 1.0 3.0 0.00 0.00 0.00 87 1024.8
20260502023232 44 303 2.0 3.0 0.00 0.00 0.00 87 1024.8
20260502022748 44 303 2.0 3.0 0.00 0.00 0.00 87 1024.8
20260502022227 44 303 2.0 4.0 0.00 0.00 0.00 87 1024.8
20260502021726 44 303 3.0 4.0 0.00 0.00 0.00 87 1024.8
20260502021251 44 296 0.0 2.0 0.00 0.00 0.00 87 1024.8
20260502020750 44 296 0.0 2.0 0.00 0.00 0.00 87 1024.7
20260502020247 44 296 0.0 0.0 0.00 0.00 0.00 87 1024.7
20260502015746 44 296 0.0 0.0 0.00 0.00 0.00 87 1024.7
20260502015248 44 296 0.0 0.0 0.00 0.00 0.00 86 1024.7
20260502014744 44 296 0.0 0.0 0.00 0.00 0.00 86 1024.7
20260502014302 44 296 0.0 0.0 0.00 0.00 0.00 86 1024.6
20260502013741 44 296 0.0 0.0 0.00 0.00 0.00 86 1024.6
20260502013222 44 296 0.0 0.0 0.00 0.00 0.00 86 1024.7
20260502012735 44 296 0.0 0.0 0.00 0.00 0.00 86 1024.7
20260502012236 44 296 0.0 0.0 0.00 0.00 0.00 86 1024.6
20260502011737 44 296 0.0 0.0 0.00 0.00 0.00 86 1024.6
20260502011233 44 296 0.0 0.0 0.00 0.00 0.00 86 1024.7
20260502010733 44 296 0.0 1.0 0.00 0.00 0.00 86 1024.7
20260502010232 44 296 0.0 1.0 0.00 0.00 0.00 85 1024.7
20260502005731 44 296 0.0 1.0 0.00 0.00 0.00 85 1024.6
20260502005230 44 296 0.0 1.0 0.00 0.00 0.00 85 1024.8
20260502004747 44 296 0.0 1.0 0.00 0.00 0.00 85 1024.7
20260502004226 45 296 0.0 1.0 0.00 0.00 0.00 85 1024.7
20260502003757 45 296 0.0 1.0 0.00 0.00 0.00 85 1024.8
20260502003250 45 296 0.0 1.0 0.00 0.00 0.00 85 1024.7
20260502002725 45 296 0.0 3.0 0.00 0.00 0.00 85 1024.8
20260502002244 45 296 2.0 3.0 0.00 0.00 0.00 85 1024.8
20260502001723 45 230 0.0 2.0 0.00 0.00 0.00 85 1024.8
20260502001312 45 230 0.0 0.0 0.00 0.00 0.00 84 1024.8
20260502000748 45 230 0.0 0.0 0.00 0.00 0.00 84 1024.7
20260502000248 45 230 0.0 0.0 0.00 0.00 0.00 84 1024.9
20260501235748 45 230 0.0 0.0 0.00 0.00 0.00 84 1024.8
20260501235244 45 230 0.0 0.0 0.00 0.00 0.00 84 1024.8
20260501234759 45 230 0.0 1.0 0.00 0.00 0.00 84 1024.9
20260501233745 45 230 0.0 0.0 0.00 0.00 0.00 83 1024.9
20260501233311 46 230 0.0 2.0 0.00 0.00 0.00 83 1024.9
20260501232752 46 230 1.0 2.0 0.00 0.00 0.00 83 1024.8
20260501232226 46 230 0.0 2.0 0.00 0.00 0.00 83 1024.8
20260501231746 46 230 1.0 2.0 0.00 0.00 0.00 83 1024.9
20260501231226 46 229 0.0 1.0 0.00 0.00 0.00 83 1024.9
20260501230744 46 229 0.0 0.0 0.00 0.00 0.00 82 1024.9
20260501230223 46 229 0.0 0.0 0.00 0.00 0.00 82 1024.8
20260501225724 46 230 0.0 0.0 0.00 0.00 0.00 82 1024.9
20260501225250 46 230 0.0 0.0 0.00 0.00 0.00 82 1024.9
20260501224742 46 230 0.0 1.0 0.00 0.00 0.00 82 1024.9
20260501224244 46 230 0.0 1.0 0.00 0.00 0.00 82 1024.9
20260501223741 46 230 0.0 0.0 0.00 0.00 0.00 82 1024.9
20260501223238 47 230 0.0 1.0 0.00 0.00 0.00 82 1024.9
20260501222736 47 230 0.0 2.0 0.00 0.00 0.00 81 1024.9
20260501222234 47 230 0.0 2.0 0.00 0.00 0.00 81 1024.9
20260501221734 47 230 0.0 1.0 0.00 0.00 0.00 81 1024.8
20260501221236 47 230 0.0 1.0 0.00 0.00 0.00 81 1024.7
20260501220735 47 230 0.0 1.0 0.00 0.00 0.00 80 1024.8
20260501220234 47 230 0.0 1.0 0.00 0.00 0.00 80 1024.7
20260501215736 47 230 0.0 0.0 0.00 0.00 0.00 80 1024.8
20260501215237 48 230 0.0 0.0 0.00 0.00 0.00 80 1024.7
20260501214736 48 230 0.0 0.0 0.00 0.00 0.00 80 1024.7
20260501214251 48 230 0.0 0.0 0.00 0.00 0.00 80 1024.7
20260501213730 48 230 0.0 0.0 0.00 0.00 0.00 79 1024.6
20260501213230 48 230 0.0 0.0 0.00 0.00 0.00 79 1024.7
20260501212728 49 230 0.0 0.0 0.00 0.00 0.00 79 1024.7
20260501212226 49 230 0.0 0.0 0.00 0.00 0.00 79 1024.7
20260501211756 49 230 0.0 0.0 0.00 0.00 0.00 78 1024.6
20260501211234 49 230 0.0 0.0 0.00 0.00 0.00 78 1024.5
20260501210732 49 230 0.0 0.0 0.00 0.00 0.00 78 1024.5
20260501210254 49 230 0.0 1.0 0.00 0.00 0.00 78 1024.5
20260501205730 49 230 0.0 1.0 0.00 0.00 0.00 77 1024.5
20260501205224 50 230 0.0 0.0 0.00 0.00 0.00 77 1024.6
20260501204734 50 230 0.0 0.0 0.00 0.00 0.00 77 1024.5
20260501204249 50 230 0.0 0.0 0.00 0.00 0.00 76 1024.5
20260501203751 50 230 0.0 0.0 0.00 0.00 0.00 76 1024.5
20260501203249 50 230 0.0 0.0 0.00 0.00 0.00 76 1024.6
20260501202747 51 230 0.0 0.0 0.00 0.00 0.00 75 1024.5
20260501202247 51 231 0.0 0.0 0.00 0.00 0.00 75 1024.4
20260501201728 51 231 0.0 0.0 0.00 0.00 0.00 74 1024.5
20260501201246 51 231 0.0 0.0 0.00 0.00 0.00 74 1024.5
20260501200725 52 230 0.0 0.0 0.00 0.00 0.00 73 1024.5
20260501200240 52 230 0.0 0.0 0.00 0.00 0.00 73 1024.4
20260501195740 52 229 0.0 0.0 0.00 0.00 0.00 73 1024.4
20260501195241 52 229 0.0 0.0 0.00 0.00 0.00 72 1024.3
20260501194810 53 229 0.0 0.0 0.00 0.00 0.00 71 1024.3
20260501194246 53 229 0.0 1.0 0.00 0.00 0.00 71 1024.3
20260501193746 54 229 0.0 0.0 0.00 0.00 0.00 70 1024.3
20260501193246 54 229 0.0 0.0 0.00 0.00 0.00 69 1024.1
20260501192745 54 229 0.0 0.0 0.00 0.00 0.00 68 1024.1
20260501192308 55 229 0.0 0.0 0.00 0.00 0.00 68 1024.1
20260501191750 55 229 0.0 0.0 0.00 0.00 0.00 67 1024.0
20260501191251 56 229 0.0 1.0 0.00 0.00 0.00 66 1024.0
20260501190751 56 229 0.0 0.0 0.00 0.00 0.00 65 1024.0
20260501190231 57 229 0.0 1.0 0.00 0.00 0.00 64 1023.9
20260501185731 57 229 0.0 1.0 0.00 0.00 0.00 62 1024.0
20260501185231 58 229 0.0 1.0 0.00 0.00 0.00 60 1023.8
20260501184730 59 229 0.0 0.0 0.00 0.00 0.00 60 1023.7
20260501184251 59 229 0.0 0.0 0.00 0.00 0.00 58 1023.7
20260501183731 60 229 0.0 1.0 0.00 0.00 0.00 57 1023.6
20260501183246 61 229 0.0 1.0 0.00 0.00 0.00 55 1023.5
20260501182726 62 229 0.0 2.0 0.00 0.00 0.00 53 1023.4
20260501182227 62 229 0.0 2.0 0.00 0.00 0.00 53 1023.4
20260501181727 63 229 1.0 2.0 0.00 0.00 0.00 50 1023.4
20260501181229 63 229 0.0 3.0 0.00 0.00 0.00 49 1023.4
20260501180759 63 229 1.0 4.0 0.00 0.00 0.00 47 1023.4
20260501180239 64 229 3.0 5.0 0.00 0.00 0.00 47 1023.3
20260501175739 64 212 2.0 5.0 0.00 0.00 0.00 47 1023.4
20260501175237 64 213 3.0 5.0 0.00 0.00 0.00 46 1023.3
20260501174739 65 213 3.0 5.0 0.00 0.00 0.00 45 1023.3
20260501174239 65 208 2.0 6.0 0.00 0.00 0.00 46 1023.4
20260501173738 65 191 3.0 5.0 0.00 0.00 0.00 44 1023.4
20260501173233 66 222 3.0 5.0 0.00 0.00 0.00 43 1023.3
20260501172732 66 208 2.0 6.0 0.00 0.00 0.00 43 1023.3
20260501172231 67 221 3.0 6.0 0.00 0.00 0.00 44 1023.3
20260501171748 68 196 3.0 6.0 0.00 0.00 0.00 42 1023.3
20260501171228 68 191 4.0 7.0 0.00 0.00 0.00 41 1023.3
20260501170728 69 121 3.0 7.0 0.00 0.00 0.00 41 1023.3
20260501170227 69 152 3.0 6.0 0.00 0.00 0.00 41 1023.3
20260501165727 69 217 2.0 5.0 0.00 0.00 0.00 38 1023.4
20260501165229 69 222 4.0 6.0 0.00 0.00 0.00 41 1023.4
20260501164729 69 217 3.0 8.0 0.00 0.00 0.00 40 1023.4
20260501164230 69 192 4.0 8.0 0.00 0.00 0.00 39 1023.4
20260501163730 69 153 3.0 7.0 0.00 0.00 0.00 39 1023.4
20260501163227 70 200 3.0 7.0 0.00 0.00 0.00 41 1023.4
20260501162725 70 291 4.0 6.0 0.00 0.00 0.00 40 1023.4
20260501162224 70 234 4.0 8.0 0.00 0.00 0.00 40 1023.5
20260501161724 70 207 3.0 8.0 0.00 0.00 0.00 40 1023.5
20260501161226 70 238 2.0 8.0 0.00 0.00 0.00 39 1023.6
20260501160726 70 139 3.0 7.0 0.00 0.00 0.00 40 1023.6
20260501160224 70 177 3.0 9.0 0.00 0.00 0.00 41 1023.6
20260501155730 70 161 5.0 9.0 0.00 0.00 0.00 39 1023.7
20260501154729 70 175 3.0 7.0 0.00 0.00 0.00 37 1023.7
20260501154246 70 180 3.0 7.0 0.00 0.00 0.00 38 1023.8
20260501153724 70 193 1.0 4.0 0.00 0.00 0.00 38 1023.8
20260501153254 70 284 3.0 6.0 0.00 0.00 0.00 38 1023.9
20260501152732 70 215 4.0 6.0 0.00 0.00 0.00 38 1024.0
20260501152230 69 148 1.0 9.0 0.00 0.00 0.00 39 1024.0
20260501151748 69 169 6.0 9.0 0.00 0.00 0.00 39 1024.1
20260501151226 69 139 3.0 12.0 0.00 0.00 0.00 40 1024.2
20260501150734 69 175 5.0 12.0 0.00 0.00 0.00 42 1024.1
20260501150235 68 277 3.0 5.0 0.00 0.00 0.00 43 1024.2
20260501145747 69 196 1.0 5.0 0.00 0.00 0.00 40 1024.2
20260501145247 69 202 3.0 6.0 0.00 0.00 0.00 43 1024.3
20260501144753 68 220 1.0 6.0 0.00 0.00 0.00 43 1024.3
20260501144231 68 232 4.0 6.0 0.00 0.00 0.00 40 1024.4
20260501143747 70 228 4.0 6.0 0.00 0.00 0.00 39 1024.3
20260501143246 69 134 2.0 8.0 0.00 0.00 0.00 41 1024.4
20260501142746 69 230 4.0 8.0 0.00 0.00 0.00 40 1024.4
20260501142227 68 202 1.0 8.0 0.00 0.00 0.00 40 1024.4
20260501141725 68 249 3.0 8.0 0.00 0.00 0.00 42 1024.5
20260501141223 68 106 3.0 8.0 0.00 0.00 0.00 41 1024.6
20260501140800 68 139 2.0 9.0 0.00 0.00 0.00 39 1024.7
20260501140239 69 205 6.0 9.0 0.00 0.00 0.00 42 1024.7
20260501135738 68 190 5.0 9.0 0.00 0.00 0.00 42 1024.7